contact:dominique.lefevre@mio.osupytheas.fr, maurice.libes@osupytheas.fr, didier.mallarino@osupytheas.fr
Project:EMSO http://www.emso-fr.org/EMSO-France
Depth: 2436.0 m
Title:EMSO Ligure Ouest : Data MII capteur MICROCAT
DateTime_Computer,Latitude,Longitude,Temperature,Conductivity,Pressure,DateTime_Instrument
DateTime_Computer,Latitude,Longitude,degC,S m-1,dbar,DateTime_Instrument
2022-08-22T00:01:14Z,42.805,6.029,13.3080,4.60077,2470.497,2022-8-22T02:03:04Z
2022-08-22T00:04:17Z,42.805,6.029,13.3056,4.60094,2470.497,2022-8-22T02:06:07Z
2022-08-22T00:07:20Z,42.805,6.029,13.3060,4.60097,2470.52,2022-8-22T02:09:10Z
2022-08-22T00:10:23Z,42.805,6.029,13.3084,4.60085,2470.483,2022-8-22T02:12:13Z
2022-08-22T00:13:26Z,42.805,6.029,13.3069,4.60081,2470.46,2022-8-22T02:15:16Z
2022-08-22T00:16:29Z,42.805,6.029,13.3075,4.60067,2470.474,2022-8-22T02:18:19Z
2022-08-22T00:19:32Z,42.805,6.029,13.3063,4.60102,2470.46,2022-8-22T02:21:22Z
2022-08-22T00:22:35Z,42.805,6.029,13.3058,4.60096,2470.474,2022-8-22T02:24:25Z
2022-08-22T00:25:39Z,42.805,6.029,13.3081,4.60161,2470.483,2022-8-22T02:27:29Z
2022-08-22T00:28:42Z,42.805,6.029,13.3058,4.60104,2470.483,2022-8-22T02:30:32Z
2022-08-22T00:31:45Z,42.805,6.029,13.3076,4.60106,2470.474,2022-8-22T02:33:35Z
2022-08-22T00:34:48Z,42.805,6.029,13.3082,4.60107,2470.483,2022-8-22T02:36:38Z
2022-08-22T00:37:51Z,42.805,6.029,13.3088,4.60142,2470.483,2022-8-22T02:39:41Z
2022-08-22T00:40:54Z,42.805,6.029,13.3099,4.60108,2470.497,2022-8-22T02:42:44Z
2022-08-22T00:43:57Z,42.805,6.029,13.3087,4.60134,2470.483,2022-8-22T02:45:47Z
2022-08-22T00:47:00Z,42.805,6.029,13.3087,4.60077,2470.52,2022-8-22T02:48:50Z
2022-08-22T00:50:04Z,42.805,6.029,13.3050,4.60117,2470.497,2022-8-22T02:51:54Z
2022-08-22T00:53:07Z,42.805,6.029,13.3076,4.60119,2470.497,2022-8-22T02:54:57Z
2022-08-22T00:56:10Z,42.805,6.029,13.3082,4.60097,2470.483,2022-8-22T02:58:00Z
2022-08-22T00:59:13Z,42.805,6.029,13.3067,4.60142,2470.497,2022-8-22T03:01:03Z
2022-08-22T01:02:16Z,42.805,6.029,13.3063,4.60091,2470.46,2022-8-22T03:04:06Z
2022-08-22T01:05:19Z,42.805,6.029,13.3054,4.60101,2470.46,2022-8-22T03:07:09Z
2022-08-22T01:08:22Z,42.805,6.029,13.3073,4.60078,2470.497,2022-8-22T03:10:12Z
2022-08-22T01:11:25Z,42.805,6.029,13.3050,4.60096,2470.46,2022-8-22T03:13:15Z
2022-08-22T01:14:29Z,42.805,6.029,13.3070,4.60152,2470.497,2022-8-22T03:16:18Z
2022-08-22T01:17:32Z,42.805,6.029,13.3050,4.60163,2470.46,2022-8-22T03:19:22Z
2022-08-22T01:20:35Z,42.805,6.029,13.3069,4.60134,2470.497,2022-8-22T03:22:25Z
2022-08-22T01:23:38Z,42.805,6.029,13.3076,4.60132,2470.474,2022-8-22T03:25:28Z
2022-08-22T01:26:41Z,42.805,6.029,13.3075,4.60080,2470.474,2022-8-22T03:28:31Z
2022-08-22T01:29:44Z,42.805,6.029,13.3056,4.60116,2470.46,2022-8-22T03:31:34Z
2022-08-22T01:32:47Z,42.805,6.029,13.3074,4.60130,2470.483,2022-8-22T03:34:37Z
2022-08-22T01:35:50Z,42.805,6.029,13.3089,4.60118,2470.52,2022-8-22T03:37:40Z
2022-08-22T01:38:54Z,42.805,6.029,13.3040,4.60102,2470.474,2022-8-22T03:40:43Z
2022-08-22T01:41:57Z,42.805,6.029,13.3056,4.60080,2470.483,2022-8-22T03:43:47Z
2022-08-22T01:45:00Z,42.805,6.029,13.3058,4.60086,2470.52,2022-8-22T03:46:50Z
2022-08-22T01:48:03Z,42.805,6.029,13.3057,4.60088,2470.483,2022-8-22T03:49:53Z
2022-08-22T01:51:06Z,42.805,6.029,13.3050,4.60131,2470.52,2022-8-22T03:52:56Z
2022-08-22T01:54:09Z,42.805,6.029,13.3043,4.60174,2470.507,2022-8-22T03:55:59Z
2022-08-22T01:57:12Z,42.805,6.029,13.3048,4.60120,2470.497,2022-8-22T03:59:02Z
2022-08-22T02:00:15Z,42.805,6.029,13.3048,4.60126,2470.497,2022-8-22T04:02:05Z
2022-08-22T02:03:18Z,42.805,6.029,13.3109,4.60108,2470.46,2022-8-22T04:05:08Z
2022-08-22T02:06:22Z,42.805,6.029,13.3099,4.60137,2470.483,2022-8-22T04:08:12Z
2022-08-22T02:09:25Z,42.805,6.029,13.3101,4.60150,2470.497,2022-8-22T04:11:15Z
2022-08-22T02:12:28Z,42.805,6.029,13.3106,4.60084,2470.483,2022-8-22T04:14:18Z
2022-08-22T02:15:31Z,42.805,6.029,13.3078,4.60087,2470.507,2022-8-22T04:17:21Z
2022-08-22T02:18:34Z,42.805,6.029,13.3078,4.60110,2470.507,2022-8-22T04:20:24Z
2022-08-22T02:21:37Z,42.805,6.029,13.3050,4.60144,2470.544,2022-8-22T04:23:27Z
2022-08-22T02:24:40Z,42.805,6.029,13.3048,4.60147,2470.507,2022-8-22T04:26:30Z
2022-08-22T02:27:43Z,42.805,6.029,13.3057,4.60119,2470.507,2022-8-22T04:29:33Z
2022-08-22T02:30:47Z,42.805,6.029,13.3073,4.60101,2470.52,2022-8-22T04:32:37Z
2022-08-22T02:33:50Z,42.805,6.029,13.3073,4.60141,2470.497,2022-8-22T04:35:40Z
2022-08-22T02:36:53Z,42.805,6.029,13.3070,4.60123,2470.553,2022-8-22T04:38:43Z
2022-08-22T02:39:56Z,42.805,6.029,13.3062,4.60138,2470.52,2022-8-22T04:41:46Z
2022-08-22T02:42:59Z,42.805,6.029,13.3053,4.60148,2470.483,2022-8-22T04:44:49Z
2022-08-22T02:46:02Z,42.805,6.029,13.3062,4.60138,2470.52,2022-8-22T04:47:52Z
2022-08-22T02:49:05Z,42.805,6.029,13.3053,4.60127,2470.52,2022-8-22T04:50:55Z
2022-08-22T02:52:08Z,42.805,6.029,13.3040,4.60140,2470.544,2022-8-22T04:53:58Z
2022-08-22T02:55:12Z,42.805,6.029,13.3030,4.60149,2470.507,2022-8-22T04:57:02Z
2022-08-22T02:58:15Z,42.805,6.029,13.3031,4.60129,2470.52,2022-8-22T05:00:05Z
2022-08-22T03:01:18Z,42.805,6.029,13.3049,4.60183,2470.497,2022-8-22T05:03:08Z
2022-08-22T03:04:21Z,42.805,6.029,13.3050,4.60188,2470.507,2022-8-22T05:06:11Z
2022-08-22T03:07:24Z,42.805,6.029,13.3054,4.60190,2470.483,2022-8-22T05:09:14Z
2022-08-22T03:10:27Z,42.805,6.029,13.3046,4.60123,2470.507,2022-8-22T05:12:17Z
2022-08-22T03:13:30Z,42.805,6.029,13.3054,4.60127,2470.52,2022-8-22T05:15:20Z
2022-08-22T03:16:33Z,42.805,6.029,13.3034,4.60150,2470.483,2022-8-22T05:18:23Z
2022-08-22T03:19:37Z,42.805,6.029,13.3067,4.60143,2470.483,2022-8-22T05:21:26Z
2022-08-22T03:22:40Z,42.805,6.029,13.3036,4.60167,2470.507,2022-8-22T05:24:30Z
2022-08-22T03:25:43Z,42.805,6.029,13.3039,4.60082,2470.507,2022-8-22T05:27:33Z
2022-08-22T03:28:46Z,42.805,6.029,13.3026,4.60105,2470.497,2022-8-22T05:30:36Z
2022-08-22T03:31:49Z,42.805,6.029,13.3035,4.60121,2470.52,2022-8-22T05:33:39Z
2022-08-22T03:34:52Z,42.805,6.029,13.3045,4.60115,2470.507,2022-8-22T05:36:42Z
2022-08-22T03:37:55Z,42.805,6.029,13.3025,4.60094,2470.507,2022-8-22T05:39:45Z
2022-08-22T03:40:58Z,42.805,6.029,13.3034,4.60104,2470.53,2022-8-22T05:42:48Z
2022-08-22T03:44:02Z,42.805,6.029,13.3036,4.60119,2470.544,2022-8-22T05:45:51Z
2022-08-22T03:47:05Z,42.805,6.029,13.3043,4.60137,2470.53,2022-8-22T05:48:55Z
2022-08-22T03:50:08Z,42.805,6.029,13.3036,4.60129,2470.483,2022-8-22T05:51:58Z
2022-08-22T03:53:11Z,42.805,6.029,13.3059,4.60144,2470.52,2022-8-22T05:55:01Z
2022-08-22T03:56:14Z,42.805,6.029,13.3046,4.60139,2470.52,2022-8-22T05:58:04Z
2022-08-22T03:59:17Z,42.805,6.029,13.3056,4.60147,2470.52,2022-8-22T06:01:07Z
2022-08-22T04:02:20Z,42.805,6.029,13.3039,4.60138,2470.544,2022-8-22T06:04:10Z
2022-08-22T04:05:23Z,42.805,6.029,13.3045,4.60134,2470.52,2022-8-22T06:07:13Z
2022-08-22T04:08:26Z,42.805,6.029,13.3042,4.60129,2470.544,2022-8-22T06:10:16Z
2022-08-22T04:11:30Z,42.805,6.029,13.3031,4.60119,2470.52,2022-8-22T06:13:20Z
2022-08-22T04:14:33Z,42.805,6.029,13.3037,4.60133,2470.53,2022-8-22T06:16:23Z
2022-08-22T04:17:36Z,42.805,6.029,13.3050,4.60120,2470.544,2022-8-22T06:19:26Z
2022-08-22T04:20:39Z,42.805,6.029,13.3039,4.60134,2470.52,2022-8-22T06:22:29Z
2022-08-22T04:23:42Z,42.805,6.029,13.3023,4.60132,2470.52,2022-8-22T06:25:32Z
2022-08-22T04:26:45Z,42.805,6.029,13.3041,4.60100,2470.507,2022-8-22T06:28:35Z
2022-08-22T04:29:48Z,42.805,6.029,13.3031,4.60105,2470.52,2022-8-22T06:31:38Z
2022-08-22T04:32:51Z,42.805,6.029,13.3035,4.60135,2470.544,2022-8-22T06:34:41Z
2022-08-22T04:35:55Z,42.805,6.029,13.3042,4.60115,2470.52,2022-8-22T06:37:45Z
2022-08-22T04:38:58Z,42.805,6.029,13.3046,4.60103,2470.507,2022-8-22T06:40:48Z
2022-08-22T04:42:01Z,42.805,6.029,13.3034,4.60094,2470.507,2022-8-22T06:43:51Z
2022-08-22T04:45:04Z,42.805,6.029,13.3046,4.60091,2470.52,2022-8-22T06:46:54Z
2022-08-22T04:48:07Z,42.805,6.029,13.3034,4.60110,2470.53,2022-8-22T06:49:57Z
2022-08-22T04:51:10Z,42.805,6.029,13.3055,4.60107,2470.553,2022-8-22T06:53:00Z
2022-08-22T04:54:13Z,42.805,6.029,13.3036,4.60102,2470.53,2022-8-22T06:56:03Z
2022-08-22T04:57:16Z,42.805,6.029,13.3046,4.60108,2470.567,2022-8-22T06:59:06Z
2022-08-22T05:00:20Z,42.805,6.029,13.3046,4.60099,2470.497,2022-8-22T07:02:10Z
2022-08-22T05:03:23Z,42.805,6.029,13.3058,4.60111,2470.53,2022-8-22T07:05:13Z
2022-08-22T05:06:26Z,42.805,6.029,13.3039,4.60120,2470.544,2022-8-22T07:08:16Z
2022-08-22T05:09:29Z,42.805,6.029,13.3024,4.60129,2470.507,2022-8-22T07:11:19Z
2022-08-22T05:12:32Z,42.805,6.029,13.3024,4.60160,2470.53,2022-8-22T07:14:22Z
2022-08-22T05:15:35Z,42.805,6.029,13.3029,4.60106,2470.567,2022-8-22T07:17:25Z
2022-08-22T05:18:38Z,42.805,6.029,13.3036,4.60125,2470.52,2022-8-22T07:20:28Z
2022-08-22T05:21:41Z,42.805,6.029,13.3041,4.60097,2470.507,2022-8-22T07:23:31Z
2022-08-22T05:24:45Z,42.805,6.029,13.3044,4.60113,2470.507,2022-8-22T07:26:34Z
2022-08-22T05:27:48Z,42.805,6.029,13.3056,4.60087,2470.53,2022-8-22T07:29:38Z
2022-08-22T05:30:51Z,42.805,6.029,13.3025,4.60126,2470.53,2022-8-22T07:32:41Z
2022-08-22T05:33:54Z,42.805,6.029,13.3026,4.60096,2470.567,2022-8-22T07:35:44Z
2022-08-22T05:36:57Z,42.805,6.029,13.3020,4.60099,2470.483,2022-8-22T07:38:47Z
2022-08-22T05:40:00Z,42.805,6.029,13.3029,4.60099,2470.52,2022-8-22T07:41:50Z
2022-08-22T05:43:03Z,42.805,6.029,13.3020,4.60090,2470.53,2022-8-22T07:44:53Z
2022-08-22T05:46:06Z,42.805,6.029,13.3032,4.60108,2470.544,2022-8-22T07:47:56Z
2022-08-22T05:49:10Z,42.805,6.029,13.3036,4.60126,2470.544,2022-8-22T07:50:59Z
2022-08-22T05:52:13Z,42.805,6.029,13.3041,4.60084,2470.483,2022-8-22T07:54:03Z
2022-08-22T05:55:16Z,42.805,6.029,13.3046,4.60115,2470.507,2022-8-22T07:57:06Z
2022-08-22T05:58:19Z,42.805,6.029,13.3054,4.60122,2470.53,2022-8-22T08:00:09Z
2022-08-22T06:01:22Z,42.805,6.029,13.3030,4.60123,2470.53,2022-8-22T08:03:12Z
2022-08-22T06:04:25Z,42.805,6.029,13.3035,4.60125,2470.507,2022-8-22T08:06:15Z
2022-08-22T06:07:28Z,42.805,6.029,13.3036,4.60132,2470.544,2022-8-22T08:09:18Z
2022-08-22T06:10:31Z,42.805,6.029,13.3048,4.60150,2470.52,2022-8-22T08:12:21Z
2022-08-22T06:13:34Z,42.805,6.029,13.3043,4.60122,2470.483,2022-8-22T08:15:24Z
2022-08-22T06:16:38Z,42.805,6.029,13.3056,4.60125,2470.507,2022-8-22T08:18:28Z
2022-08-22T06:19:41Z,42.805,6.029,13.3066,4.60107,2470.483,2022-8-22T08:21:31Z
2022-08-22T06:22:44Z,42.805,6.029,13.3052,4.60115,2470.544,2022-8-22T08:24:34Z
2022-08-22T06:25:47Z,42.805,6.029,13.3059,4.60119,2470.52,2022-8-22T08:27:37Z
2022-08-22T06:28:50Z,42.805,6.029,13.3041,4.60127,2470.52,2022-8-22T08:30:40Z
2022-08-22T06:31:53Z,42.805,6.029,13.3036,4.60120,2470.483,2022-8-22T08:33:43Z
2022-08-22T06:34:56Z,42.805,6.029,13.3034,4.60136,2470.52,2022-8-22T08:36:46Z
2022-08-22T06:37:59Z,42.805,6.029,13.3059,4.60127,2470.52,2022-8-22T08:39:49Z
2022-08-22T06:41:03Z,42.805,6.029,13.3063,4.60122,2470.52,2022-8-22T08:42:53Z
2022-08-22T06:44:06Z,42.805,6.029,13.3054,4.60152,2470.497,2022-8-22T08:45:56Z
2022-08-22T06:47:09Z,42.805,6.029,13.3047,4.60117,2470.507,2022-8-22T08:48:59Z
2022-08-22T06:50:12Z,42.805,6.029,13.3044,4.60106,2470.507,2022-8-22T08:52:02Z
2022-08-22T06:53:15Z,42.805,6.029,13.3040,4.60098,2470.483,2022-8-22T08:55:05Z
2022-08-22T06:56:18Z,42.805,6.029,13.3030,4.60114,2470.52,2022-8-22T08:58:08Z
2022-08-22T06:59:21Z,42.805,6.029,13.3036,4.60139,2470.497,2022-8-22T09:01:11Z
2022-08-22T07:02:24Z,42.805,6.029,13.3056,4.60117,2470.483,2022-8-22T09:04:14Z
2022-08-22T07:05:27Z,42.805,6.029,13.3056,4.60132,2470.52,2022-8-22T09:07:17Z
2022-08-22T07:08:31Z,42.805,6.029,13.3049,4.60137,2470.497,2022-8-22T09:10:21Z
2022-08-22T07:11:34Z,42.805,6.029,13.3051,4.60128,2470.544,2022-8-22T09:13:24Z
2022-08-22T07:14:37Z,42.805,6.029,13.3054,4.60121,2470.483,2022-8-22T09:16:27Z
2022-08-22T07:17:40Z,42.805,6.029,13.3034,4.60084,2470.52,2022-8-22T09:19:30Z
2022-08-22T07:20:43Z,42.805,6.029,13.3024,4.60132,2470.483,2022-8-22T09:22:33Z
2022-08-22T07:23:46Z,42.805,6.029,13.3043,4.60132,2470.52,2022-8-22T09:25:36Z
2022-08-22T07:26:49Z,42.805,6.029,13.3031,4.60110,2470.497,2022-8-22T09:28:39Z
2022-08-22T07:29:52Z,42.805,6.029,13.3046,4.60096,2470.52,2022-8-22T09:31:42Z
2022-08-22T07:32:56Z,42.805,6.029,13.3044,4.60089,2470.52,2022-8-22T09:34:46Z
2022-08-22T07:35:59Z,42.805,6.029,13.3057,4.60116,2470.474,2022-8-22T09:37:49Z
2022-08-22T07:39:02Z,42.805,6.029,13.3059,4.60104,2470.497,2022-8-22T09:40:52Z
2022-08-22T07:42:05Z,42.805,6.029,13.3056,4.60129,2470.507,2022-8-22T09:43:55Z
2022-08-22T07:45:08Z,42.805,6.029,13.3045,4.60142,2470.483,2022-8-22T09:46:58Z
2022-08-22T07:48:11Z,42.805,6.029,13.3031,4.60127,2470.52,2022-8-22T09:50:01Z
2022-08-22T07:51:14Z,42.805,6.029,13.3032,4.60123,2470.507,2022-8-22T09:53:04Z
2022-08-22T07:54:17Z,42.805,6.029,13.3036,4.60121,2470.544,2022-8-22T09:56:07Z
2022-08-22T07:57:21Z,42.805,6.029,13.3051,4.60142,2470.497,2022-8-22T09:59:11Z
2022-08-22T08:00:24Z,42.805,6.029,13.3063,4.60104,2470.52,2022-8-22T10:02:14Z
2022-08-22T08:03:27Z,42.805,6.029,13.3046,4.60081,2470.497,2022-8-22T10:05:17Z
2022-08-22T08:06:30Z,42.805,6.029,13.3029,4.60121,2470.497,2022-8-22T10:08:20Z
2022-08-22T08:09:33Z,42.805,6.029,13.3048,4.60132,2470.474,2022-8-22T10:11:23Z
2022-08-22T08:12:36Z,42.805,6.029,13.3036,4.60130,2470.497,2022-8-22T10:14:26Z
2022-08-22T08:15:39Z,42.805,6.029,13.3076,4.60120,2470.483,2022-8-22T10:17:29Z
2022-08-22T08:18:42Z,42.805,6.029,13.3054,4.60142,2470.46,2022-8-22T10:20:32Z
2022-08-22T08:21:46Z,42.805,6.029,13.3047,4.60127,2470.53,2022-8-22T10:23:36Z
2022-08-22T08:24:49Z,42.805,6.029,13.3055,4.60132,2470.52,2022-8-22T10:26:39Z
2022-08-22T08:27:52Z,42.805,6.029,13.3063,4.60095,2470.497,2022-8-22T10:29:42Z
2022-08-22T08:30:55Z,42.805,6.029,13.3034,4.60135,2470.46,2022-8-22T10:32:45Z
2022-08-22T08:33:58Z,42.805,6.029,13.3047,4.60140,2470.507,2022-8-22T10:35:48Z
2022-08-22T08:37:01Z,42.805,6.029,13.3065,4.60133,2470.483,2022-8-22T10:38:51Z
2022-08-22T08:40:04Z,42.805,6.029,13.3055,4.60103,2470.483,2022-8-22T10:41:54Z
2022-08-22T08:43:08Z,42.805,6.029,13.3073,4.60125,2470.483,2022-8-22T10:44:57Z
2022-08-22T08:46:11Z,42.805,6.029,13.3069,4.60187,2470.53,2022-8-22T10:48:01Z
2022-08-22T08:49:14Z,42.805,6.029,13.3067,4.60134,2470.46,2022-8-22T10:51:04Z
2022-08-22T08:52:17Z,42.805,6.029,13.3073,4.60127,2470.483,2022-8-22T10:54:07Z
2022-08-22T08:55:20Z,42.805,6.029,13.3028,4.60141,2470.497,2022-8-22T10:57:10Z
2022-08-22T08:58:23Z,42.805,6.029,13.3058,4.60147,2470.497,2022-8-22T11:00:13Z
2022-08-22T09:01:26Z,42.805,6.029,13.3082,4.60135,2470.52,2022-8-22T11:03:16Z
2022-08-22T09:04:29Z,42.805,6.029,13.3093,4.60090,2470.497,2022-8-22T11:06:19Z
2022-08-22T09:07:32Z,42.805,6.029,13.3082,4.60135,2470.46,2022-8-22T11:09:22Z
2022-08-22T09:10:36Z,42.805,6.029,13.3034,4.60178,2470.474,2022-8-22T11:12:26Z
2022-08-22T09:13:39Z,42.805,6.029,13.3057,4.60185,2470.46,2022-8-22T11:15:29Z
2022-08-22T09:16:42Z,42.805,6.029,13.3070,4.60136,2470.46,2022-8-22T11:18:32Z
2022-08-22T09:19:45Z,42.805,6.029,13.3069,4.60122,2470.474,2022-8-22T11:21:35Z
2022-08-22T09:22:48Z,42.805,6.029,13.3096,4.60167,2470.474,2022-8-22T11:24:38Z
2022-08-22T09:25:51Z,42.805,6.029,13.3105,4.60131,2470.497,2022-8-22T11:27:41Z
2022-08-22T09:28:54Z,42.805,6.029,13.3075,4.60112,2470.52,2022-8-22T11:30:44Z
2022-08-22T09:31:57Z,42.805,6.029,13.3101,4.60116,2470.507,2022-8-22T11:33:47Z
2022-08-22T09:35:01Z,42.805,6.029,13.3113,4.60153,2470.46,2022-8-22T11:36:51Z
2022-08-22T09:38:04Z,42.805,6.029,13.3091,4.60129,2470.497,2022-8-22T11:39:54Z
2022-08-22T09:41:07Z,42.805,6.029,13.3084,4.60159,2470.46,2022-8-22T11:42:57Z
2022-08-22T09:44:10Z,42.805,6.029,13.3060,4.60164,2470.474,2022-8-22T11:46:00Z
2022-08-22T09:47:13Z,42.805,6.029,13.3046,4.60180,2470.474,2022-8-22T11:49:03Z
2022-08-22T09:50:16Z,42.805,6.029,13.3040,4.60123,2470.497,2022-8-22T11:52:06Z
2022-08-22T09:53:19Z,42.805,6.029,13.3062,4.60141,2470.46,2022-8-22T11:55:09Z
2022-08-22T09:56:22Z,42.805,6.029,13.3091,4.60104,2470.497,2022-8-22T11:58:12Z
2022-08-22T09:59:26Z,42.805,6.029,13.3051,4.60141,2470.483,2022-8-22T12:01:16Z
2022-08-22T10:02:29Z,42.805,6.029,13.3082,4.60105,2470.497,2022-8-22T12:04:19Z
2022-08-22T10:05:32Z,42.805,6.029,13.3074,4.60176,2470.497,2022-8-22T12:07:22Z
2022-08-22T10:08:35Z,42.805,6.029,13.3091,4.60199,2470.46,2022-8-22T12:10:25Z
2022-08-22T10:11:38Z,42.805,6.029,13.3079,4.60141,2470.497,2022-8-22T12:13:28Z
2022-08-22T10:14:41Z,42.805,6.029,13.3108,4.60159,2470.46,2022-8-22T12:16:31Z
2022-08-22T10:17:44Z,42.805,6.029,13.3097,4.60104,2470.497,2022-8-22T12:19:34Z
2022-08-22T10:20:47Z,42.805,6.029,13.3076,4.60110,2470.46,2022-8-22T12:22:37Z
2022-08-22T10:23:51Z,42.805,6.029,13.3093,4.60114,2470.52,2022-8-22T12:25:41Z
2022-08-22T10:26:54Z,42.805,6.029,13.3043,4.60104,2470.483,2022-8-22T12:28:44Z
2022-08-22T10:29:57Z,42.805,6.029,13.3069,4.60144,2470.52,2022-8-22T12:31:47Z
2022-08-22T10:33:00Z,42.805,6.029,13.3088,4.60132,2470.474,2022-8-22T12:34:50Z
2022-08-22T10:36:03Z,42.805,6.029,13.3051,4.60116,2470.497,2022-8-22T12:37:53Z
2022-08-22T10:39:06Z,42.805,6.029,13.3054,4.60110,2470.497,2022-8-22T12:40:56Z
2022-08-22T10:42:09Z,42.805,6.029,13.3078,4.60076,2470.497,2022-8-22T12:43:59Z
2022-08-22T10:45:13Z,42.805,6.029,13.3053,4.60098,2470.46,2022-8-22T12:47:02Z
2022-08-22T10:48:16Z,42.805,6.029,13.3042,4.60086,2470.46,2022-8-22T12:50:06Z
2022-08-22T10:51:19Z,42.805,6.029,13.3074,4.60102,2470.46,2022-8-22T12:53:09Z
2022-08-22T10:54:22Z,42.805,6.029,13.3074,4.60096,2470.46,2022-8-22T12:56:12Z
2022-08-22T10:57:25Z,42.805,6.029,13.3075,4.60142,2470.437,2022-8-22T12:59:15Z
2022-08-22T11:00:28Z,42.805,6.029,13.3067,4.60144,2470.497,2022-8-22T13:02:18Z
2022-08-22T11:03:31Z,42.805,6.029,13.3056,4.60164,2470.437,2022-8-22T13:05:21Z
2022-08-22T11:06:34Z,42.805,6.029,13.3072,4.60135,2470.497,2022-8-22T13:08:24Z
2022-08-22T11:09:37Z,42.805,6.029,13.3073,4.60110,2470.46,2022-8-22T13:11:27Z
2022-08-22T11:12:41Z,42.805,6.029,13.3103,4.60137,2470.474,2022-8-22T13:14:31Z
2022-08-22T11:15:44Z,42.805,6.029,13.3076,4.60099,2470.437,2022-8-22T13:17:34Z
2022-08-22T11:18:47Z,42.805,6.029,13.3069,4.60131,2470.497,2022-8-22T13:20:37Z
2022-08-22T11:21:50Z,42.805,6.029,13.3056,4.60099,2470.413,2022-8-22T13:23:40Z
2022-08-22T11:24:53Z,42.805,6.029,13.3069,4.60086,2470.46,2022-8-22T13:26:43Z
2022-08-22T11:27:56Z,42.805,6.029,13.3073,4.60150,2470.437,2022-8-22T13:29:46Z
2022-08-22T11:30:59Z,42.805,6.029,13.3073,4.60116,2470.544,2022-8-22T13:32:49Z
2022-08-22T11:34:03Z,42.805,6.029,13.3069,4.60099,2470.52,2022-8-22T13:35:52Z
2022-08-22T11:37:06Z,42.805,6.029,13.3072,4.60077,2470.497,2022-8-22T13:38:56Z
2022-08-22T11:40:09Z,42.805,6.029,13.3048,4.60060,2470.52,2022-8-22T13:41:59Z
2022-08-22T11:43:12Z,42.805,6.029,13.3027,4.60106,2470.46,2022-8-22T13:45:02Z
2022-08-22T11:46:15Z,42.805,6.029,13.3050,4.60099,2470.474,2022-8-22T13:48:05Z
2022-08-22T11:49:18Z,42.805,6.029,13.3071,4.60075,2470.507,2022-8-22T13:51:08Z
2022-08-22T11:52:21Z,42.805,6.029,13.3058,4.60078,2470.46,2022-8-22T13:54:11Z
2022-08-22T11:55:24Z,42.805,6.029,13.3061,4.60114,2470.474,2022-8-22T13:57:14Z
2022-08-22T11:58:28Z,42.805,6.029,13.3054,4.60062,2470.507,2022-8-22T14:00:18Z
2022-08-22T12:01:31Z,42.805,6.029,13.3056,4.60097,2470.52,2022-8-22T14:03:21Z
2022-08-22T12:04:34Z,42.805,6.029,13.3046,4.60110,2470.474,2022-8-22T14:06:24Z
2022-08-22T12:07:37Z,42.805,6.029,13.3051,4.60123,2470.483,2022-8-22T14:09:27Z
2022-08-22T12:10:40Z,42.805,6.029,13.3063,4.60072,2470.52,2022-8-22T14:12:30Z
2022-08-22T12:13:43Z,42.805,6.029,13.3039,4.60095,2470.52,2022-8-22T14:15:33Z
2022-08-22T12:16:46Z,42.805,6.029,13.3058,4.60074,2470.52,2022-8-22T14:18:36Z
2022-08-22T12:19:49Z,42.805,6.029,13.3067,4.60090,2470.483,2022-8-22T14:21:39Z
2022-08-22T12:22:53Z,42.805,6.029,13.3057,4.60106,2470.483,2022-8-22T14:24:43Z
2022-08-22T12:25:56Z,42.805,6.029,13.3058,4.60081,2470.52,2022-8-22T14:27:46Z
2022-08-22T12:28:59Z,42.805,6.029,13.3066,4.60110,2470.497,2022-8-22T14:30:49Z
2022-08-22T12:32:02Z,42.805,6.029,13.3054,4.60112,2470.483,2022-8-22T14:33:52Z
2022-08-22T12:35:05Z,42.805,6.029,13.3063,4.60069,2470.483,2022-8-22T14:36:55Z
2022-08-22T12:38:08Z,42.805,6.029,13.3051,4.60096,2470.52,2022-8-22T14:39:58Z
2022-08-22T12:41:11Z,42.805,6.029,13.3046,4.60105,2470.53,2022-8-22T14:43:01Z
2022-08-22T12:44:14Z,42.805,6.029,13.3040,4.60084,2470.497,2022-8-22T14:46:04Z
2022-08-22T12:47:18Z,42.805,6.029,13.3078,4.60075,2470.52,2022-8-22T14:49:08Z
2022-08-22T12:50:21Z,42.805,6.029,13.3048,4.60079,2470.497,2022-8-22T14:52:11Z
2022-08-22T12:53:24Z,42.805,6.029,13.3041,4.60074,2470.483,2022-8-22T14:55:14Z
2022-08-22T12:56:27Z,42.805,6.029,13.3073,4.60080,2470.52,2022-8-22T14:58:17Z
2022-08-22T12:59:30Z,42.805,6.029,13.3047,4.60069,2470.53,2022-8-22T15:01:20Z
2022-08-22T13:02:33Z,42.805,6.029,13.3035,4.60084,2470.483,2022-8-22T15:04:23Z
2022-08-22T13:05:36Z,42.805,6.029,13.3071,4.60081,2470.507,2022-8-22T15:07:26Z
2022-08-22T13:08:39Z,42.805,6.029,13.3047,4.60074,2470.52,2022-8-22T15:10:29Z
2022-08-22T13:11:43Z,42.805,6.029,13.3048,4.60081,2470.507,2022-8-22T15:13:33Z
2022-08-22T13:14:46Z,42.805,6.029,13.3057,4.60105,2470.507,2022-8-22T15:16:36Z
2022-08-22T13:17:49Z,42.805,6.029,13.3071,4.60092,2470.507,2022-8-22T15:19:39Z
2022-08-22T13:20:52Z,42.805,6.029,13.3052,4.60072,2470.53,2022-8-22T15:22:42Z
2022-08-22T13:23:55Z,42.805,6.029,13.3057,4.60102,2470.544,2022-8-22T15:25:45Z
2022-08-22T13:26:58Z,42.805,6.029,13.3039,4.60085,2470.553,2022-8-22T15:28:48Z
2022-08-22T13:30:01Z,42.805,6.029,13.3066,4.60081,2470.567,2022-8-22T15:31:51Z
2022-08-22T13:33:04Z,42.805,6.029,13.3061,4.60085,2470.497,2022-8-22T15:34:54Z
2022-08-22T13:36:08Z,42.805,6.029,13.3055,4.60078,2470.53,2022-8-22T15:37:58Z
2022-08-22T13:39:11Z,42.805,6.029,13.3061,4.60070,2470.544,2022-8-22T15:41:01Z
2022-08-22T13:42:14Z,42.805,6.029,13.3055,4.60091,2470.544,2022-8-22T15:44:04Z
2022-08-22T13:45:17Z,42.805,6.029,13.3073,4.60082,2470.544,2022-8-22T15:47:07Z
2022-08-22T13:48:20Z,42.805,6.029,13.3060,4.60077,2470.567,2022-8-22T15:50:10Z
2022-08-22T13:51:23Z,42.805,6.029,13.3059,4.60080,2470.544,2022-8-22T15:53:13Z
2022-08-22T13:54:26Z,42.805,6.029,13.3058,4.60072,2470.553,2022-8-22T15:56:16Z
2022-08-22T13:57:30Z,42.805,6.029,13.3046,4.60077,2470.544,2022-8-22T15:59:19Z
2022-08-22T14:00:33Z,42.805,6.029,13.3056,4.60099,2470.567,2022-8-22T16:02:23Z
2022-08-22T14:03:36Z,42.805,6.029,13.3067,4.60092,2470.553,2022-8-22T16:05:26Z
2022-08-22T14:06:39Z,42.805,6.029,13.3070,4.60078,2470.553,2022-8-22T16:08:29Z
2022-08-22T14:09:42Z,42.805,6.029,13.3036,4.60080,2470.553,2022-8-22T16:11:32Z
2022-08-22T14:12:45Z,42.805,6.029,13.3046,4.60081,2470.544,2022-8-22T16:14:35Z
2022-08-22T14:15:48Z,42.805,6.029,13.3056,4.60097,2470.53,2022-8-22T16:17:38Z
2022-08-22T14:18:51Z,42.805,6.029,13.3043,4.60081,2470.544,2022-8-22T16:20:41Z
2022-08-22T14:21:55Z,42.805,6.029,13.3042,4.60074,2470.553,2022-8-22T16:23:44Z
2022-08-22T14:24:58Z,42.805,6.029,13.3051,4.60102,2470.553,2022-8-22T16:26:48Z
2022-08-22T14:28:01Z,42.805,6.029,13.3058,4.60082,2470.567,2022-8-22T16:29:51Z
2022-08-22T14:31:04Z,42.805,6.029,13.3057,4.60076,2470.567,2022-8-22T16:32:54Z
2022-08-22T14:34:07Z,42.805,6.029,13.3046,4.60073,2470.553,2022-8-22T16:35:57Z
2022-08-22T14:37:10Z,42.805,6.029,13.3065,4.60089,2470.614,2022-8-22T16:39:00Z
2022-08-22T14:40:13Z,42.805,6.029,13.3046,4.60110,2470.591,2022-8-22T16:42:03Z
2022-08-22T14:43:16Z,42.805,6.029,13.3075,4.60112,2470.553,2022-8-22T16:45:06Z
2022-08-22T14:46:20Z,42.805,6.029,13.3076,4.60079,2470.591,2022-8-22T16:48:10Z
2022-08-22T14:49:23Z,42.805,6.029,13.3073,4.60073,2470.577,2022-8-22T16:51:13Z
2022-08-22T14:52:26Z,42.805,6.029,13.3037,4.60076,2470.577,2022-8-22T16:54:16Z
2022-08-22T14:55:29Z,42.805,6.029,13.3049,4.60079,2470.6,2022-8-22T16:57:19Z
2022-08-22T14:58:32Z,42.805,6.029,13.3045,4.60075,2470.577,2022-8-22T17:00:22Z
2022-08-22T15:01:35Z,42.805,6.029,13.3090,4.60096,2470.591,2022-8-22T17:03:25Z
2022-08-22T15:04:38Z,42.805,6.029,13.3072,4.60115,2470.567,2022-8-22T17:06:28Z
2022-08-22T15:07:41Z,42.805,6.029,13.3053,4.60110,2470.614,2022-8-22T17:09:31Z
2022-08-22T15:10:45Z,42.805,6.029,13.3051,4.60104,2470.567,2022-8-22T17:12:35Z
2022-08-22T15:13:48Z,42.805,6.029,13.3048,4.60087,2470.614,2022-8-22T17:15:38Z